Tracking 19709 objects as of 20-Jun-2019
HD Live streaming from Space Station
objects crossing your sky now

FENGYUN 1C DEB

Track FENGYUN 1C DEB now!
10-day predictions


NORAD ID: 30356
Int'l Code: 1999-025ABT
Perigee: 832.6 km
Apogee: 916.2 km
Inclination: 98.8 °
Period: 102.3 minutes
Semi major axis: 7245 km
RCS: 0.038 m2 (small)
Launch date: May 10, 1999
Source: People's Republic of China (PRC)
Launch site: Taiyaun Space Center, China (TSC)

Note: This is SATELLITE DEBRIS
aabbcc
Your satellite tracking list
Your tracking list is empty




NASA's NSSDC Master Catalog

Two Line Element Set (TLE):
1 30356U 99025ABT 19170.81015715  .00000072  00000-0  66975-4 0  9994
2 30356  98.8090 211.4503 0057685 150.7940 262.4961 14.07689190636747
Source of the keplerian elements: AFSPC